Weather Roundup
Issued by NWS

Home | Current Version | Previous Version | Graphics & Text | Print | Product List | Glossary Off
Versions: 1 2 3 4 5 6 7 8 9 10 11 12 13 14 15 16 17 18 19 20 21 22 23 24 25 26 27 28 29 30 31 32 33 34 35 36 37 38 39 40 41 42 43 44 45 46 47 48 49 50

000
NZUS93 KARX 010510
HRRWXR

CURRENT HOURLY OBSERVATIONS ACROSS
MUCH OF THE UPPER MISSISSIPPI VALLEY
NATIONAL WEATHER SERVICE LA CROSSE WI
1200 AM CDT TUE SEP 01 2015


...SOUTHEAST MINNESOTA...


CITY           SKY/WX    TMP DP  RH WIND       PRES   REMARKS
ROCHESTER      PTCLDY    71  70  96 SW7       29.97S FOG
ROCHESTER/MAYO CLOUDY    74  74 100 S8        29.96S
WINONA         PTCLDY    75  70  83 CALM      29.95S
AUSTIN         CLEAR     72  72 100 CALM      29.96S FOG
ALBERT LEA     CLEAR     72  70  94 CALM      29.96R
DODGE CENTER   PTCLDY    70  68  94 S5        29.96S FOG
PRESTON        PTCLDY    72  69  92 S6        29.98S FOG
OWATONNA       CLEAR     72  68  88 S7        29.94S
FARIBAULT      CLEAR     72  70  94 S5        29.94R
$$

...ELSEWHERE IN MINNESOTA...


CITY           SKY/WX    TMP DP  RH WIND       PRES   REMARKS
MINNEAPOLIS    MOCLDY    77  70  79 S3        29.91R
INTNL FALLS    CLOUDY    63  62  97 SW3       29.84S
DULUTH         MOCLDY    72  68  87 SW8       29.88S
RED WING       PTCLDY    73  70  88 CALM      29.92S
REDWOOD FALLS  PTCLDY    72  67  84 S9        29.90R
MANKATO        CLEAR     72  66  83 S5        29.93R
WORTHINGTON    CLEAR     68  64  88 S7        29.94S
FAIRMONT       CLEAR     66  61  82 CALM      29.94R
$$

...SOUTHWEST WISCONSIN...


CITY           SKY/WX    TMP DP  RH WIND       PRES   REMARKS
LA CROSSE      PTCLDY    72  70  93 SW6       29.96S
PRAIRIE DU CHI CLEAR     73  69  87 E3        29.97S
BOSCOBEL       CLEAR     70  68  93 CALM      29.98F FOG
LONE ROCK      CLEAR     68  66  93 E5        30.00S
PLATTEVILLE    CLEAR     72  70  93 SE6       30.01S
FORT MC COY    CLEAR     67  65  92 CALM      29.98S
CAMP DOUGLAS   CLEAR     69  69 100 S6        29.99R
VIROQUA          N/A     71  71 100 SE6       30.00S
WIS DELLS      CLEAR     70  65  85 S7        30.00F
$$

...ELSEWHERE IN WISCONSIN...


CITY           SKY/WX    TMP DP  RH WIND       PRES   REMARKS
MILWAUKEE      PTCLDY    69  65  86 S6        30.04R
MADISON        CLEAR     71  67  87 S3        30.01S
GREEN BAY      CLEAR     69  66  90 S7        30.00S FOG
EAU CLAIRE     PTCLDY    73  69  87 S10       29.94S
BLACK RVR FLS    N/A     64  64 100 CALM      29.97S FOG
MEDFORD        CLOUDY    67  67  98 S7        30.00S FOG
WAUSAU         CLEAR     68  66  93 S5        29.99S FOG
WIS RAPIDS     LGT RAIN  70  65  84 S5        30.01S
MARSHFIELD     CLEAR     67  64  90 S7        30.00S FOG
RICE LAKE      PTCLDY    70  67  92 CALM      29.95R FOG
$$

...NORTHEAST IOWA...


CITY           SKY/WX    TMP DP  RH WIND       PRES   REMARKS
DECORAH        CLOUDY    73  72  94 S7        29.97S
MASON CITY     FOG       67  67 100 S6        29.97S VSB 1/4
CHARLES CITY   CLEAR     73  73 100 VRB6      29.97S FOG
OELWEIN        CLOUDY    73  72  94 S6        29.99R
$$

...ELSEWHERE IN IOWA...


CITY           SKY/WX    TMP DP  RH WIND       PRES   REMARKS
DES MOINES     PTCLDY    75  70  84 S6        29.95S
IOWA CITY      CLEAR     74  71  91 CALM      29.99R
FORT DODGE     CLEAR     64  63  94 CALM      29.96S
$$

...NORTHERN ILLINOIS...


CITY           SKY/WX    TMP DP  RH WIND       PRES   REMARKS
CHICAGO-OHARE  CLEAR     72  68  87 SE6       30.04R
CHICAGO-MIDWAY CLEAR     78  69  73 S5        30.04S
MOLINE         CLEAR     76  70  82 S8        30.00R
ROCKFORD       CLEAR     72  67  84 CALM      30.04S
PEORIA         CLEAR     77  70  79 S7        30.04R
$$

NOTE: "FAIR" INDICATES FEW OR NO CLOUDS BELOW 12,000 FEET WITH NO
SIGNIFICANT WEATHER AND/OR OBSTRUCTIONS TO VISIBILITY. WIND
SPEEDS ARE IN MILES-PER-HOUR.



USA.gov is the U.S. government's official web portal to all federal, state and local government web resources and services.